This is the latest recevied weather packets stored in our database for station/object KC0RPY. If no packets are shown the sender has not sent any weather packets the latest 10 day(s).
| Time | Temp. | Humidity | Pressure | Rain* | Wind** | Luminosity | Snow |
|---|---|---|---|---|---|---|---|
| 1778280938 | 20° C | 70% | 1008.3 hPa | 0 mm | - | 308 W/m² | - |
| 1778280634 | 18.89° C | 70% | 1007.9 hPa | 0 mm | - | 365 W/m² | - |
| 1778280332 | 18.33° C | 73% | 1007.6 hPa | 0 mm | - | 154 W/m² | - |
| 1778280029 | 17.78° C | 75% | 1007.6 hPa | 0 mm | - | 509 W/m² | - |
| 1778279727 | 18.33° C | 75% | 1007.6 hPa | 0 mm | - | 416 W/m² | - |
| 1778279424 | 17.78° C | 78% | 1007.6 hPa | 0 mm | - | 396 W/m² | - |
| 1778279121 | 17.78° C | 81% | 1007.9 hPa | 0 mm | - | 161 W/m² | - |
| 1778278818 | 17.78° C | 83% | 1008.3 hPa | 0 mm | - | 189 W/m² | - |
| 1778278514 | 17.22° C | 83% | 1008.3 hPa | 0 mm | - | 262 W/m² | - |
| 1778278210 | 17.22° C | 83% | 1008.3 hPa | 0 mm | - | 233 W/m² | - |
| 1778277907 | 16.67° C | 84% | 1008.7 hPa | 0 mm | - | 211 W/m² | - |
| 1778277603 | 16.67° C | 85% | 1008.7 hPa | 0 mm | - | 179 W/m² | - |
| 1778277300 | 16.67° C | 85% | 1009 hPa | 0 mm | - | 174 W/m² | - |
| 1778276996 | 16.67° C | 85% | 1008.7 hPa | 0 mm | - | 189 W/m² | - |
| 1778276695 | 17.22° C | 86% | 1009 hPa | 0 mm | - | 127 W/m² | - |
| 1778276390 | 17.22° C | 85% | 1009 hPa | 0 mm | - | 167 W/m² | - |
| 1778276088 | 17.22° C | 84% | 1009 hPa | 0 mm | - | 200 W/m² | - |
| 1778275783 | 17.22° C | 85% | 1009 hPa | 0 mm | - | 223 W/m² | - |
| 1778275480 | 17.78° C | 85% | 1009 hPa | 0 mm | - | 244 W/m² | - |
| 1778275176 | 17.78° C | 83% | 1009.4 hPa | 0 mm | - | 353 W/m² | - |
| 1778274872 | 17.78° C | 82% | 1009.7 hPa | 0 mm | - | 96 W/m² | - |
| 1778274569 | 17.78° C | 81% | 1009.7 hPa | 0 mm | - | 101 W/m² | - |
| 1778274266 | 18.33° C | 79% | 1009.7 hPa | 0 mm | - | 114 W/m² | - |
| 1778273962 | 18.33° C | 77% | 1009.7 hPa | 0 mm | - | 170 W/m² | - |
| 1778273659 | 18.89° C | 76% | 1009.7 hPa | 0 mm | - | 177 W/m² | - |
* Rain latest hour (hover to see other rain measurements)
** Current wind speed in m/s (hover to see current wind gust speed)